Location: Mentone
(34.5413°N, 85.5351°W)
Time: 00:30:10
(UTC-05:00)

Centaur AC-72 - Visible Passes

Search period start: 18 April 2014 00:00
Search period end: 28 April 2014 00:00
Orbit: 1096 x 35261 km, 19.4° (Epoch: 17 April)

Date Brightness Start Highest point End Pass type
(mag) Time Alt. Az. Time Alt. Az. Time Alt. Az.
18 Apr 8.5 00:21:40 10° SE 07:32:32 56° SE 09:05:59 10° E visible
19 Apr 10.6 02:10:28 10° E 04:32:04 21° E 05:45:04 10° E visible
20 Apr 6.0 05:07:22 10° SW 14:25:31 45° SW 14:38:14 10° SE visible
21 Apr 7.1 02:16:52 20° S 11:13:49 66° S 11:47:14 10° ESE visible
22 Apr 8.1 00:07:46 10° ESE 07:14:45 56° SE 08:50:00 10° E visible
23 Apr 10.6 01:57:55 10° E 04:15:25 21° E 05:27:46 10° E visible
24 Apr 6.1 04:50:27 10° SW 14:09:23 45° SW 14:22:33 10° SE visible
25 Apr 7.2 02:04:05 22° S 10:56:24 66° S 11:31:30 10° ESE visible
25 Apr 8.2 23:53:50 10° ESE 06:57:02 56° SE 08:34:01 10° E visible
27 Apr 10.5 01:45:34 10° E 03:58:45 20° E 05:10:19 10° E visible
